TimeCDT,TemperatureF,Dew PointF,Humidity,Sea Level PressureIn,VisibilityMPH,Wind Direction,Wind SpeedMPH,Gust SpeedMPH,PrecipitationIn,Events,Conditions,WindDirDegrees,DateUTC
12:15 AM,35.6,30.2,81,30.26,10.0,Calm,Calm,-,N/A,,Clear,0,2012-10-29 05:15:00
12:35 AM,37.4,32.0,81,30.26,10.0,Calm,Calm,-,N/A,,Clear,0,2012-10-29 05:35:00
12:55 AM,35.6,32.0,87,30.27,10.0,Calm,Calm,-,N/A,,Clear,0,2012-10-29 05:55:00
1:15 AM,37.4,30.2,75,30.27,10.0,Calm,Calm,-,N/A,,Clear,0,2012-10-29 06:15:00
1:35 AM,35.6,30.2,81,30.27,10.0,Calm,Calm,-,N/A,,Clear,0,2012-10-29 06:35:00
1:55 AM,35.6,30.2,81,30.27,10.0,Calm,Calm,-,N/A,,Clear,0,2012-10-29 06:55:00
2:15 AM,35.6,30.2,81,30.27,10.0,Calm,Calm,-,N/A,,Clear,0,2012-10-29 07:15:00
2:35 AM,33.8,30.2,87,30.27,10.0,Calm,Calm,-,N/A,,Clear,0,2012-10-29 07:35:00
2:55 AM,33.8,30.2,87,30.27,10.0,Calm,Calm,-,N/A,,Clear,0,2012-10-29 07:55:00
3:15 AM,33.8,30.2,87,30.27,10.0,Calm,Calm,-,N/A,,Clear,0,2012-10-29 08:15:00
3:55 AM,35.6,30.2,81,30.26,10.0,Calm,Calm,-,N/A,,Clear,0,2012-10-29 08:55:00
4:15 AM,33.8,28.4,81,30.26,10.0,Calm,Calm,-,N/A,,Clear,0,2012-10-29 09:15:00
4:55 AM,33.8,28.4,81,30.26,10.0,Calm,Calm,-,N/A,,Clear,0,2012-10-29 09:55:00
5:15 AM,32.0,30.2,93,30.26,10.0,Calm,Calm,-,N/A,,Clear,0,2012-10-29 10:15:00
5:35 AM,33.8,28.4,81,30.27,10.0,Calm,Calm,-,N/A,,Clear,0,2012-10-29 10:35:00
5:55 AM,35.6,28.4,75,30.27,10.0,Calm,Calm,-,N/A,,Clear,0,2012-10-29 10:55:00
6:15 AM,33.8,28.4,81,30.27,10.0,Calm,Calm,-,N/A,,Clear,0,2012-10-29 11:15:00
6:35 AM,32.0,30.2,93,30.26,10.0,Calm,Calm,-,N/A,,Clear,0,2012-10-29 11:35:00
6:55 AM,32.0,28.4,87,30.27,10.0,Calm,Calm,-,N/A,,Clear,0,2012-10-29 11:55:00
7:15 AM,33.8,28.4,81,30.27,10.0,Calm,Calm,-,N/A,,Clear,0,2012-10-29 12:15:00
7:35 AM,32.0,28.4,87,30.27,10.0,Calm,Calm,-,N/A,,Clear,0,2012-10-29 12:35:00
7:55 AM,32.0,30.2,93,30.27,10.0,Calm,Calm,-,N/A,,Clear,0,2012-10-29 12:55:00
8:15 AM,33.8,30.2,87,30.29,10.0,Calm,Calm,-,N/A,,Clear,0,2012-10-29 13:15:00
8:55 AM,37.4,32.0,81,30.30,10.0,Calm,Calm,-,N/A,,Clear,0,2012-10-29 13:55:00
9:15 AM,42.8,32.0,66,30.30,10.0,Calm,Calm,-,N/A,,Clear,0,2012-10-29 14:15:00
9:35 AM,44.6,32.0,61,30.30,10.0,Calm,Calm,-,N/A,,Clear,0,2012-10-29 14:35:00
9:55 AM,48.2,33.8,58,30.31,10.0,South,3.5,-,N/A,,Clear,170,2012-10-29 14:55:00
10:15 AM,51.8,33.8,50,30.31,10.0,South,5.8,-,N/A,,Clear,170,2012-10-29 15:15:00
10:35 AM,53.6,30.2,41,30.30,10.0,South,6.9,-,N/A,,Clear,180,2012-10-29 15:35:00
11:15 AM,55.4,26.6,33,30.30,10.0,South,6.9,-,N/A,,Clear,170,2012-10-29 16:15:00
11:35 AM,57.2,24.8,29,30.30,10.0,SSW,6.9,-,N/A,,Clear,200,2012-10-29 16:35:00
11:55 AM,59.0,24.8,27,30.30,10.0,South,4.6,-,N/A,,Clear,190,2012-10-29 16:55:00
12:15 PM,59.0,23.0,25,30.29,10.0,South,6.9,-,N/A,,Clear,170,2012-10-29 17:15:00
12:35 PM,59.0,23.0,25,30.28,10.0,South,4.6,-,N/A,,Clear,170,2012-10-29 17:35:00
12:55 PM,60.8,24.8,25,30.26,10.0,South,5.8,-,N/A,,Clear,180,2012-10-29 17:55:00
1:15 PM,60.8,26.6,27,30.25,10.0,SSE,5.8,-,N/A,,Clear,150,2012-10-29 18:15:00
1:35 PM,60.8,26.6,27,30.24,10.0,SSE,5.8,-,N/A,,Clear,150,2012-10-29 18:35:00
1:55 PM,62.6,26.6,26,30.22,10.0,SSE,8.1,-,N/A,,Clear,160,2012-10-29 18:55:00
2:15 PM,62.6,26.6,26,30.21,10.0,Calm,Calm,-,N/A,,Clear,0,2012-10-29 19:15:00
2:35 PM,62.6,26.6,26,30.19,10.0,Calm,Calm,-,N/A,,Clear,0,2012-10-29 19:35:00
2:55 PM,62.6,24.8,24,30.18,10.0,SW,4.6,-,N/A,,Clear,220,2012-10-29 19:55:00
3:15 PM,64.4,23.0,21,30.17,10.0,SSE,4.6,-,N/A,,Clear,160,2012-10-29 20:15:00
3:35 PM,64.4,23.0,21,30.17,10.0,SSE,4.6,-,N/A,,Clear,160,2012-10-29 20:35:00
3:55 PM,64.4,21.2,19,30.17,10.0,SW,4.6,-,N/A,,Clear,220,2012-10-29 20:55:00
4:15 PM,64.4,21.2,19,30.15,10.0,SSW,5.8,-,N/A,,Clear,200,2012-10-29 21:15:00
4:55 PM,64.4,23.0,21,30.15,10.0,SW,6.9,-,N/A,,Clear,220,2012-10-29 21:55:00
5:15 PM,64.4,23.0,21,30.14,10.0,South,4.6,-,N/A,,Clear,180,2012-10-29 22:15:00
5:35 PM,64.4,24.8,22,30.14,10.0,South,3.5,-,N/A,,Clear,190,2012-10-29 22:35:00
5:55 PM,64.4,24.8,22,30.14,10.0,South,3.5,-,N/A,,Clear,170,2012-10-29 22:55:00
6:15 PM,62.6,26.6,26,30.13,10.0,South,3.5,-,N/A,,Clear,170,2012-10-29 23:15:00
6:35 PM,60.8,26.6,27,30.13,10.0,Calm,Calm,-,N/A,,Clear,0,2012-10-29 23:35:00
6:55 PM,57.2,26.6,31,30.13,10.0,Calm,Calm,-,N/A,,Clear,0,2012-10-29 23:55:00
7:15 PM,53.6,28.4,38,30.13,10.0,Calm,Calm,-,N/A,,Clear,0,2012-10-30 00:15:00
7:35 PM,50.0,30.2,47,30.13,10.0,Calm,Calm,-,N/A,,Clear,0,2012-10-30 00:35:00
10:35 PM,42.8,32.0,66,30.14,10.0,Calm,Calm,-,N/A,,Clear,0,2012-10-30 03:35:00
10:55 PM,42.8,32.0,66,30.13,10.0,Calm,Calm,-,N/A,,Clear,0,2012-10-30 03:55:00
11:15 PM,42.8,32.0,66,30.13,10.0,Calm,Calm,-,N/A,,Clear,0,2012-10-30 04:15:00
11:35 PM,42.8,32.0,66,30.13,10.0,Calm,Calm,-,N/A,,Clear,0,2012-10-30 04:35:00
11:55 PM,41.0,32.0,70,30.12,10.0,Calm,Calm,-,N/A,,Clear,0,2012-10-30 04:55:00